User: anonymous
Location: Unspecified
(0.0000°N, 0.0000°E)
Time: 08:24:02
(UTC+02:00)
Language:

Ariane H10 - Orbit

View from above orbital plane
View from above orbital plane
View from above satellite
View from above satellite

Ground track
Ground track

The orbit data is extracted from the following two-line orbital elements,

1 21815U 91084C   14294.56549521  .00000122  00000-0  29907-3 0  6628
2 21815 003.8620 117.7582 7188800 007.2755 279.9059 02.31132615189875
Epoch (UTC): 21 October 2014 13:34:18
Eccentricity: 0.7188800
inclination: 3.8620°
perigee height: 415 km
apogee height: 35156 km
right ascension of ascending node: 117.7582°
argument of perigee: 7.2755°
revolutions per day: 2.31132615
mean anomaly at epoch: 279.9059°
orbit number at epoch: 18987

The dashed part of the orbit path shows where the satellite is in the earth's shadow,  

DLR